Location: ??????????
(44.2167°N, 135.5333°E)
Time: 15:22:50
(UTC+00:00)

Cosmos 1953 - Pass Details

Date: 15 June 2025
Orbit: 485 x 500 km, 82.5° (Epoch: 15 July)

Event Time Altitude Azimuth Distance (km) Brightness Sun altitude
Rises 12:34:44 0° 0° (N) 2,602 6.7 -14.9°
Reaches altitude 10° 12:37:01 10° 11° (N) 1,716 5.5 -15.1°
Maximum altitude 12:40:25 32° 76° (ENE) 886 3.2 -15.4°
Enters shadow 12:41:38 26° 112° (ESE) 1,028 3.2 -15.5°
